Wind from 172 at 4 knots gusting 6

Air temperature 24.4° C
Dewpoint 14.5° C

Last reported at 2014-Apr-16 12:50 UTC.
Time now 2014-Apr-16 13:45 UTC

Location: N 38°44' E 000°06'.
View on Google Maps.

See reports from other nearby stations

Tides Stations Pressure Air Temp Water Temp Dewpoint Dewpoint depression Visibility Wind Speed Wind Dir Waves Ship positions

  
sailing weather and tide predictions

CW6020 Teulada ES weather

date/time (UTC)wind fromknots sea level pressurealtimeterstation pressurevisibilityair tempwater tempwave heightnotes
2014-Apr-16 12:50 172 4 gusting 6 24.4
2014-Apr-16 12:40 165 4 gusting 6 25.0
2014-Apr-16 12:30 165 3 gusting 6 25.0
2014-Apr-16 12:10 180 3 gusting 5 25.0
2014-Apr-16 12:00 165 5 gusting 6 25.0
2014-Apr-16 11:50 165 3 gusting 6 24.4
2014-Apr-16 11:40 120 3 gusting 6 24.4
2014-Apr-16 11:20 172 4 gusting 6 25.0
2014-Apr-16 10:30 165 3 gusting 5 24.4
2014-Apr-16 10:20 165 3 gusting 7 24.4
2014-Apr-16 10:10 180 3 gusting 6 24.4
2014-Apr-16 10:00 172 3 gusting 5 25.0
2014-Apr-16 09:50 120 2 gusting 4 25.0
2014-Apr-16 09:40 150 2 gusting 4 25.0
2014-Apr-16 09:20 120 2 gusting 3 24.4
2014-Apr-16 09:00 165 1 gusting 3 23.3
2014-Apr-16 08:40 225 22.2
2014-Apr-16 08:30 270 0 gusting 1 20.6
2014-Apr-16 08:20 20.6
2014-Apr-16 08:10 015 0 gusting 3 19.4
2014-Apr-16 08:00 19.4
2014-Apr-16 07:10 067 1 gusting 2 17.2
2014-Apr-16 06:50 105 1 gusting 1 15.6
2014-Apr-16 06:40 247 0 gusting 1 14.4
2014-Apr-16 06:30 097 1 gusting 2 14.4
2014-Apr-16 06:00 165 1 gusting 1 13.9
2014-Apr-16 05:50 285 0 gusting 1 13.9
2014-Apr-16 05:30 127 2 gusting 3 13.9
2014-Apr-16 05:20 240 1 gusting 3 13.3
2014-Apr-16 05:10 210 1 gusting 2 13.3
2014-Apr-16 05:00 075 1 gusting 2 13.3
2014-Apr-16 04:50 060 12.8
2014-Apr-16 04:30 090 12.8
2014-Apr-16 03:50 255 1 gusting 1 12.2
2014-Apr-16 03:40 060 12.2
2014-Apr-16 03:00 090 12.2
2014-Apr-16 02:50 090 12.2
2014-Apr-16 01:10 150 12.8
2014-Apr-16 00:50 195 13.3
2014-Apr-16 00:40 090 13.3
2014-Apr-16 00:10 105 0 gusting 1 12.8
2014-Apr-16 00:00 120 1 gusting 1 12.8
2014-Apr-15 23:50 150 13.3
2014-Apr-15 23:30 135 1 gusting 1 13.3
2014-Apr-15 23:00 105 14.4
2014-Apr-15 22:50 060 15.0
2014-Apr-15 22:40 030 15.6
2014-Apr-15 22:30 090 15.6
2014-Apr-15 22:10 090 0 gusting 1 15.6
2014-Apr-15 22:00 090 15.6
2014-Apr-15 21:40 075 15.6
2014-Apr-15 21:30 345 0 gusting 0 15.6
2014-Apr-15 21:20 345 15.6
2014-Apr-15 21:10 105 15.6
2014-Apr-15 21:00 240 15.6
2014-Apr-15 20:40 180 16.1
2014-Apr-15 20:30 120 16.1
2014-Apr-15 19:50 090 16.7
2014-Apr-15 19:40 045 17.2
2014-Apr-15 19:20 060 1 gusting 1 17.8
2014-Apr-15 19:10 150 17.8
2014-Apr-15 18:50 225 0 gusting 1 18.3
2014-Apr-15 18:40 195 18.9
2014-Apr-15 18:30 165 1 gusting 2 19.4
2014-Apr-15 18:20 165 2 gusting 3 19.4
2014-Apr-15 18:10 187 2 gusting 3 20.6
2014-Apr-15 17:50 165 3 gusting 5 21.1
2014-Apr-15 17:00 195 3 gusting 6 22.8
2014-Apr-15 16:40 180 3 gusting 4 23.3
2014-Apr-15 16:30 180 2 gusting 3 23.3
2014-Apr-15 16:20 180 3 gusting 6 23.3
2014-Apr-15 15:50 165 3 gusting 6 24.4
2014-Apr-15 15:30 127 3 gusting 6 25.0
2014-Apr-15 15:10 150 5 gusting 6 25.6
2014-Apr-15 14:40 187 6 gusting 8 25.6
2014-Apr-15 14:10 180 4 gusting 6 26.7
2014-Apr-15 14:00 262 4 gusting 6 26.7
2014-Apr-15 13:10 165 6 gusting 11 25.6
2014-Apr-15 12:50 180 7 gusting 10 25.6
2014-Apr-15 12:20 180 6 gusting 9 25.6
2014-Apr-15 11:50 165 6 gusting 7 25.6
2014-Apr-15 11:40 127 6 gusting 9 25.6
2014-Apr-15 11:30 157 7 gusting 9 25.6
2014-Apr-15 11:00 112 7 gusting 9 25.0
2014-Apr-15 10:50 165 6 gusting 6 25.0
2014-Apr-15 10:30 150 5 gusting 6 25.6
2014-Apr-15 10:10 165 6 gusting 8 23.9
2014-Apr-15 09:50 150 6 gusting 6 23.9
2014-Apr-15 09:30 180 6 gusting 7 24.4
2014-Apr-15 09:20 165 5 gusting 8 25.6
2014-Apr-15 09:10 150 3 gusting 6 25.6
2014-Apr-15 08:40 135 0 gusting 1 24.4
2014-Apr-15 08:20 195 1 gusting 2 23.9
2014-Apr-15 08:10 180 1 gusting 2 22.8
2014-Apr-15 08:00 120 0 gusting 1 22.2
2014-Apr-15 07:40 195 0 gusting 1 19.4
2014-Apr-15 07:30 225 18.3
2014-Apr-15 07:20 120 0 gusting 1 17.2
2014-Apr-15 07:10 120 1 gusting 1 15.6
2014-Apr-15 07:00 120 0 gusting 1 13.3
2014-Apr-15 06:30 135 1 gusting 1 11.1
2014-Apr-15 06:20 120 1 gusting 1 11.1
2014-Apr-15 05:40 075 1 gusting 1 10.6
2014-Apr-15 05:30 105 1 gusting 1 10.6
2014-Apr-15 05:00 165 10.6
2014-Apr-15 04:50 075 10.6
2014-Apr-15 04:40 105 10.6
2014-Apr-15 04:30 105 0 gusting 1 10.6
2014-Apr-15 04:10 135 10.6
2014-Apr-15 03:40 150 10.6
2014-Apr-15 03:10 165 11.1
2014-Apr-15 02:50 195 11.7
2014-Apr-15 02:40 165 11.7
2014-Apr-15 02:20 030 12.2
2014-Apr-15 02:00 120 12.8
2014-Apr-15 01:50 075 13.3
2014-Apr-15 01:40 180 13.3
2014-Apr-15 01:30 315 13.9
2014-Apr-15 01:20 285 13.9
2014-Apr-15 01:10 240 14.4
2014-Apr-15 01:00 150 15.0
2014-Apr-15 00:30 015 16.1
2014-Apr-15 00:00 210 16.1
2014-Apr-14 23:50 240 16.7
2014-Apr-14 23:40 180 16.7
2014-Apr-14 23:20 210 0 gusting 1 16.7
2014-Apr-14 23:10 202 0 gusting 1 16.7
2014-Apr-14 22:50 285 0 gusting 1 16.7
2014-Apr-14 22:10 255 1 gusting 3 16.7
2014-Apr-14 22:00 270 2 gusting 3 16.7
2014-Apr-14 21:10 255 2 gusting 3 15.6
2014-Apr-14 21:00 352 1 gusting 4 15.0
2014-Apr-14 20:40 180 1 gusting 1 15.0
2014-Apr-14 20:10 270 1 gusting 2 15.6
2014-Apr-14 19:50 202 1 gusting 2 15.6
2014-Apr-14 19:40 180 1 gusting 2 15.6
2014-Apr-14 19:20 180 1 gusting 1 16.1
2014-Apr-14 19:10 210 0 gusting 1 16.1
2014-Apr-14 19:00 195 1 gusting 1 16.7
2014-Apr-14 18:50 180 17.2
2014-Apr-14 18:40 120 0 gusting 1 17.2
2014-Apr-14 18:30 195 0 gusting 1 17.8
2014-Apr-14 18:10 180 3 gusting 6 18.9
2014-Apr-14 18:00 180 4 gusting 6 18.9
2014-Apr-14 17:50 195 3 gusting 5 19.4
2014-Apr-14 17:40 195 3 gusting 4 19.4
2014-Apr-14 16:40 165 6 gusting 7 21.1
2014-Apr-14 16:20 180 5 gusting 6 21.7
2014-Apr-14 16:10 180 5 gusting 7 22.2
2014-Apr-14 15:10 180 6 gusting 8 22.8
2014-Apr-14 15:00 202 7 gusting 9 22.8
2014-Apr-14 14:50 165 8 gusting 13 22.8
2014-Apr-14 14:40 150 6 gusting 6 22.8
2014-Apr-14 14:20 180 6 gusting 7 23.3
2014-Apr-14 14:10 165 6 gusting 9 23.3
2014-Apr-14 14:00 165 7 gusting 12 23.3
2014-Apr-14 13:40 150 4 gusting 7 23.3
2014-Apr-14 13:20 165 6 gusting 8 24.4
2014-Apr-14 13:10 180 4 gusting 6 24.4
2014-Apr-14 13:00 180 6 gusting 8 25.0